Retour au catalogue

STARLINK-32460

ActifCommunicationsVLEO
NORAD 61914·PAYLOAD·🇺🇸 United States

Lancé Nov 11, 2024 depuis Cape Canaveral Space Force Station

Loading…

Prochains Passages (prochaines 24 heures)

TLE

FraisSource: CelesTrak SupGP

Époque: Sep 15, 2026, 03:41 UTC

1 61914C 24207C   26258.15395833  .00003254  00000+0  11782-3 0  2589
2 61914  43.0026 291.3342 0001666 269.5308  68.6434 15.27586528    15

Suivez STARLINK-32460 en temps réel avec AllMySat

Download on the App Store